Printer-friendly version
Follow the MPC on Twitter Follow the MPC on Facebook The MPC blog
Minor Planet Center

MPEC 2005-B01 : 2005 AV27

The following Minor Planet Electronic Circular may be linked-to from your own Web pages, but must not otherwise be redistributed electronically.

A form allowing access to any MPEC is at the bottom of this page.


Read MPEC 2005-A58 Read MPEC 2005-B02


M.P.E.C. 2005-B01                                Issued 2005 Jan. 16, 06:40 UT

     The Minor Planet Electronic Circulars contain information on unusual
         minor planets and routine data on comets.  They are published
   on behalf of Commission 20 of the International Astronomical Union by the
          Minor Planet Center, Smithsonian Astrophysical Observatory,
                          Cambridge, MA 02138, U.S.A.

                  Supported in part by the Brinson Foundation
             Prepared using the Tamkin Foundation Computer Network

                              MPC@CFA.HARVARD.EDU
          URL http://cfa-www.harvard.edu/iau/mpc.html  ISSN 1523-6714

                                   2005 AV27

Observations:
     K05A27V* C2005 01 15.24805 09 45 04.05 +34 26 46.2          19.1 R EB001699
     K05A27V  C2005 01 15.26277 09 45 06.41 +34 27 18.8                 EB001699
     K05A27V  C2005 01 15.27748 09 45 08.70 +34 27 53.6                 EB001699
     K05A27V  C2005 01 15.29220 09 45 10.72 +34 28 27.9                 EB001699
     K05A27V 5C2005 01 15.41956 09 45 30.23 +34 33 15.3          19.5 R EB001673
     K05A27V 5C2005 01 15.42211 09 45 30.64 +34 33 21.3                 EB001673
     K05A27V 5C2005 01 15.42928 09 45 31.71 +34 33 37.2                 EB001673
     K05A27V 5C2005 01 15.43426 09 45 32.46 +34 33 48.2                 EB001673
     K05A27V  C2005 01 15.92480 09 46 54.83 +34 52 17.2          19.2 R EB001118
     K05A27V  C2005 01 15.92597 09 46 54.99 +34 52 19.7          18.8 R EB001118
     K05A27V  C2005 01 15.92599 09 46 55.14 +34 52 18.6          19.0 V EB001198
     K05A27V  C2005 01 15.92715 09 46 55.18 +34 52 23.0          18.9 R EB001118
     K05A27V  C2005 01 15.92799 09 46 55.40 +34 52 24.4                 EB001246
     K05A27V  C2005 01 15.92876 09 46 55.55 +34 52 26.1                 EB001246
     K05A27V  C2005 01 15.92896 09 46 55.63 +34 52 26.1          19.1 V EB001198
     K05A27V  C2005 01 15.92950 09 46 55.57 +34 52 28.7          19.1 R EB001118
     K05A27V  C2005 01 15.93047 09 46 55.83 +34 52 30.2                 EB001246
     K05A27V  C2005 01 15.93068 09 46 55.69 +34 52 30.7          19.2 R EB001118
     K05A27V  C2005 01 15.93134 09 46 56.01 +34 52 31.9          19.1 V EB001198
     K05A27V  C2005 01 15.93145 09 46 55.96 +34 52 32.5                 EB001246
     K05A27V  C2005 01 15.93222 09 46 56.08 +34 52 34.2                 EB001246
     K05A27V  C2005 01 15.93431 09 46 56.50 +34 52 39.0          19.1 V EB001198
     K05A27V  C2005 01 15.93728 09 46 56.98 +34 52 46.3          19.1 V EB001198
     K05A27V  C2005 01 16.24558 09 47 49.83 +35 04 51.9          18.6 R EB001G90
     K05A27V  C2005 01 16.25032 09 47 50.59 +35 05 03.4          18.6 R EB001G90
     K05A27V  C2005 01 16.25506 09 47 51.37 +35 05 15.0          18.7 R EB001G90

Observer details:
118 Modra.  Observer L. Kornos.  0.6-m f/5.5 reflector + CCD.
198 Wildberg.  Observer R. Apitzsch.  0.35-m f/4.2 reflector + CCD.
246 Klet Observatory-KLENOT.  Observers M. Tichy, J. Ticha.  Measurer M. Tichy.
    1.06-m KLENOT Telescope + CCD.
673 Table Mountain Observatory, Wrightwood.  Observer J. Young.  0.6-m
    reflector + CCD.
699 Lowell Observatory-LONEOS.  Observer M. E. Van Ness.  0.59-m LONEOS
    Schmidt + CCD.
G90 Three Buttes Observatory, Tucson.  Observer G. R. Jones.  0.40-m
    Ritchey-Chretien + CCD.

Orbital elements:
2005 AV27                                                            PHA 0.038
Epoch 2005 Jan. 10.0 TT = JDT 2453380.5                 MPC
M 340.80676              (2000.0)            P               Q
n   0.26494751     Peri.  138.58420     -0.88725402     +0.45095239
a   2.4008378      Node    68.46535     -0.44591030     -0.78461428
e   0.6751657      Incl.    5.98986     -0.11808602     -0.42546725
P   3.72           H   20.3           G   0.15
From 26 observations 2005 Jan. 15-16.

Ephemeris:
2005 AV27                a,e,i = 2.40, 0.68, 6                   q = 0.7799
Date    TT    R. A. (2000) Decl.     Delta      r     Elong.  Phase     V
2005 01 10    09 32.84   +31 38.5    0.366    1.314   150.1    21.9    19.8
2005 01 15    09 44.38   +34 17.7    0.309    1.263   151.1    22.1    19.3
2005 01 20    10 00.13   +37 50.2    0.256    1.213   150.1    23.9    18.9
2005 01 25    10 24.24   +42 38.7    0.207    1.162   146.2    28.1    18.5
2005 01 30    11 06.93   +49 07.0    0.164    1.113   138.2    36.1    18.1
2005 02 04    12 35.63   +56 26.5    0.129    1.064   124.5    49.8    17.8
2005 02 09    15 22.95   +57 06.8    0.109    1.017   103.4    70.7    18.0
2005 02 14    17 47.59   +42 59.3    0.109    0.972    78.8    94.9    18.8
2005 02 19    18 57.65   +25 52.9    0.129    0.930    59.7   113.4    20.1

                       (Last issue was M.P.E.C. 2005-A58)

Kyle E. Smalley              (C) Copyright 2005 MPC           M.P.E.C. 2005-B01

Read MPEC 2005-A58 Read MPEC 2005-B02


MPEC number:

Enter an MPEC number in one of the following forms:

  • 1997-B01 (the full form)
  • J97B01 (the packed version of the full form)
  • B01 (the abbreviated form)

Valid HTML 4.01!